Location: Unspecified
(0.0000°N, 0.0000°E)
Time: 13:03:39
(UTC+02:00)

Ariane H10+ - Visible Passes

Search period start: 30 May 2017 00:00
Search period end: 09 June 2017 00:00
Orbit: 285 x 31321 km, 6.8° (Epoch: 29 May)

Date Brightness Start Highest point End Pass type
(mag) Time Alt. Az. Time Alt. Az. Time Alt. Az.
30 May 8.0 01:08:02 10° W 02:51:10 40° W 09:21:31 10° E visible
30 May 7.3 18:49:15 10° WSW 18:59:40 74° S 03:10:42 10° E visible
31 May 8.9 22:26:23 10° W 00:14:37 81° WNW 06:54:18 10° E visible
01 Jun 10.3 20:49:12 10° E 22:50:24 17° E 00:00:00 10° E visible
02 Jun 6.7 02:39:17 10° W 03:58:01 21° W 10:27:27 10° E visible
02 Jun 8.3 19:55:45 10° WSW 20:14:16 82° S 04:22:47 10° E visible
03 Jun 8.7 23:37:22 10° W 01:27:25 60° W 08:00:41 10° E visible
04 Jun 7.1 17:28:24 10° WSW 23:55:20 36° E 01:37:34 10° E visible
05 Jun 8.9 21:02:24 10° W 21:41:17 88° SSE 05:31:15 10° E visible
07 Jun 7.9 00:52:42 10° W 02:35:40 40° W 09:05:48 10° E visible
07 Jun 7.9 18:33:16 10° WSW 01:01:22 56° ENE 02:54:32 10° E visible
